Wind_Speed
8 10 11 11 11 10 9 10 9 7 7 8 7 5 7 9 9 7 12 12 14 15 15 17 16 16 17 15 11 7 7 9 10 9 18 14 14 12 11 10 8 7 8
9 10 11 12 12 10 10 10 7 6 7 8 8 9 9 10 10 10 12 14 15 15 16 16 18 17 15 15 15 18 15 10 19 16 14 10 11 9 8 7 6 7 8
12 15 14 13 12 11 10 10 8 7 7 8 8 9 9 9 10 11 12 15 15 16 16 14 15 15 16 16 14 14 17 14 14 17 12 13 10 7 7 7 7 5 5
16 18 17 14 12 11 9 9 8 8 7 7 7 8 7 9 10 11 12 13 15 16 18 20 19 17 13 14 15 14 14 18 18 18 16 12 8 7 5 5 4 3 4
18 13 17 15 13 12 11 8 8 7 8 7 7 6 6 7 9 9 11 11 13 15 15 19 22 21 19 15 14 13 16 18 17 17 11 8 7 5 3 3 2 3 0
18 13 14 13 15 14 11 10 9 9 8 6 5 7 8 7 8 10 11 10 10 11 10 11 15 18 21 19 19 20 12 16 15 13 10 8 6 6 6 6 7 5 2
15 12 13 14 15 16 13 12 12 10 9 6 6 7 5 8 9 10 10 10 10 9 10 12 11 12 14 13 15 18 18 17 13 11 13 10 9 5 4 6 7 5 5
20 17 16 16 18 17 16 16 13 14 11 9 7 9 7 7 10 11 10 9 10 11 10 8 10 10 12 12 15 16 15 13 10 10 9 8 5 1 1 1 4 4 5
10 7 7 6 13 18 21 19 17 15 13 11 9 12 8 7 11 11 6 7 8 8 7 9 7 9 10 11 9 12 12 14 13 11 9 9 10 9 6 9 1 9 10
4 4 2 13 12 15 15 16 18 18 17 13 11 11 10 9 11 9 5 6 9 9 6 7 4 7 7 7 7 6 8 8 6 4 5 5 5 10 11 10 11 17 15
7 8 7 17 10 10 8 13 14 17 16 14 13 13 12 10 12 11 5 8 9 10 10 8 5 6 6 4 2 3 7 5 3 7 8 7 6 7 10 10 8 8 10
6 9 8 11 10 7 7 10 10 13 16 15 13 11 11 11 12 12 10 8 7 10 8 6 6 6 5 5 4 4 4 4 8 13 4 9 7 7 7 6 4 5 2
5 6 8 7 8 6 3 5 9 16 20 17 17 14 14 11 10 12 12 10 8 7 9 8 9 9 8 7 4 4 2 9 11 4 10 8 4 2 5 3 8 8 9
4 5 6 7 7 9 8 4 11 18 22 21 18 18 15 14 13 12 13 12 10 10 9 9 11 10 7 5 6 3 3 3 6 7 6 4 2 2 2 5 4 7 10
5 5 6 7 7 10 8 8 11 15 21 26 23 17 13 14 16 13 13 13 12 11 11 11 13 11 10 13 13 5 6 3 2 2 2 2 2 2 6 3 3 5 6
6 7 8 8 7 8 9 9 12 16 17 20 17 14 14 12 14 19 18 14 14 14 14 13 16 18 20 19 16 12 8 5 3 1 3 3 2 3 5 6 1 3 4
6 6 6 8 9 6 9 10 10 11 14 16 14 14 12 12 13 15 16 16 15 14 16 18 20 20 13 7 7 9 15 10 6 2 1 2 0 3 4 4 4 4 5
6 8 9 10 12 8 9 10 12 14 12 15 16 14 13 11 13 14 15 16 15 18 18 18 17 16 10 10 8 8 10 6 10 5 3 3 2 1 9 5 9 5 3
7 8 10 10 8 13 13 12 13 14 13 12 15 14 15 14 15 15 15 16 15 16 20 21 20 15 12 11 9 7 5 4 5 3 7 8 7 5 9 8 10 13 9
10 13 13 10 12 13 15 15 15 15 17 20 18 16 16 17 15 15 17 20 18 17 23 24 15 13 13 11 12 10 10 12 13 12 12 12 6 6 5 10 13 11 18
13 14 13 13 17 17 17 20 23 22 24 23 20 21 21 19 16 17 17 18 20 22 21 19 16 16 13 17 14 15 15 16 21 20 14 3 1 4 9 9 12 16 15
14 16 9 14 21 18 24 25 26 22 24 23 17 22 20 20 20 21 20 20 21 22 13 10 10 17 20 19 20 18 16 15 6 8 4 2 4 9 11 12 15 15 14
16 17 13 13 17 15 18 13 12 10 10 14 20 22 23 18 20 19 22 21 20 16 11 11 11 7 6 12 11 11 10 8 4 3 4 4 6 9 12 13 15 16 14
16 16 13 14 14 14 16 7 11 9 13 14 18 25 23 20 18 20 14 16 17 16 15 12 12 11 11 5 8 8 9 11 7 3 5 6 7 10 13 13 12 14 15
16 15 15 15 14 14 10 3 5 4 7 7 5 10 7 5 11 20 16 8 14 11 10 12 12 12 12 9 13 14 16 15 12 9 8 9 10 12 12 12 14 14 11
15 14 14 14 15 15 13 11 9 10 7 7 4 4 2 8 12 8 2 8 10 12 13 12 13 14 13 12 13 14 15 13 11 11 12 12 10 11 12 13 10 8 11
Wind_Direction
163 152 138 128 126 116 106 93 88 80 69 57 57 54 74 62 52 72 75 61 58 53 55 49 43 47 49 56 66 108 140 144 120 106 126 127 116 116 113 110 99 81 88
152 141 146 146 139 133 120 106 107 103 90 83 75 71 62 59 61 66 67 60 61 57 52 52 56 54 57 61 63 67 86 118 135 122 122 114 113 119 116 118 120 108 91
161 163 168 153 147 139 136 128 119 101 87 80 75 72 71 68 68 66 73 70 67 59 56 55 50 53 61 68 72 77 85 91 127 133 123 130 121 126 120 108 107 100 102
189 186 159 160 150 150 149 137 129 116 105 96 90 89 81 77 71 70 71 73 79 67 65 65 63 64 61 69 77 73 94 99 112 123 125 128 128 132 126 126 119 142 101
216 196 157 162 163 163 162 148 138 129 118 114 112 102 85 81 94 83 84 79 84 85 73 68 66 66 66 69 76 89 89 101 112 119 120 129 133 139 163 157 140 127 43
215 177 162 170 173 173 167 164 161 143 136 127 127 115 103 92 104 92 97 90 84 83 87 73 68 60 66 68 74 84 100 105 118 127 139 147 157 152 163 171 184 182 217
210 203 185 182 192 179 179 180 177 163 155 147 128 128 116 129 133 116 103 101 98 86 69 79 81 75 84 76 81 92 92 88 101 115 106 117 117 157 201 205 221 235 193
214 219 201 198 197 195 182 188 186 173 170 167 156 148 145 141 145 134 115 114 105 98 91 89 98 92 93 84 92 99 96 92 88 97 96 102 106 152 199 259 260 235 200
236 226 204 260 222 210 190 191 183 176 174 179 183 163 165 170 161 159 130 139 126 107 114 110 96 118 104 123 97 100 99 98 89 81 79 85 76 61 49 47 290 279 249
215 199 299 307 292 260 222 190 192 190 183 181 190 183 176 189 180 181 188 155 151 135 130 135 126 132 133 123 138 138 148 158 145 122 132 125 115 91 57 35 31 13 16
200 197 260 305 306 227 247 242 203 186 177 182 183 184 184 206 194 192 160 126 160 160 161 146 139 137 141 136 114 96 137 165 204 215 227 225 200 149 67 40 31 30 27
186 206 215 241 257 268 230 220 227 191 179 180 178 182 197 197 203 202 196 168 182 177 156 159 165 144 121 100 91 109 147 212 259 272 239 101 65 49 17 353 14 13 10
188 188 187 219 241 259 295 245 197 183 185 183 185 198 194 197 211 209 204 198 188 171 179 183 170 154 137 86 119 118 0 324 300 81 80 82 65 347 345 320 334 270 291
197 209 243 261 261 263 264 246 212 198 194 192 193 211 194 193 193 206 202 199 190 178 180 182 171 166 177 218 193 161 63 322 39 38 43 42 335 59 73 42 353 341 323
209 223 238 252 259 266 256 225 213 210 209 200 203 214 195 204 195 199 192 190 195 185 169 185 188 207 217 214 224 204 169 188 157 91 42 29 48 8 65 347 325 331 338
244 235 231 222 245 250 243 233 229 220 213 209 210 225 211 223 204 189 192 194 189 187 178 193 205 222 229 228 185 168 176 155 121 123 108 64 14 87 11 306 25 310 309
271 280 270 232 201 209 223 223 214 206 208 204 205 201 201 202 185 196 202 197 191 195 199 215 221 230 216 154 188 198 157 143 176 216 227 157 290 359 295 301 298 259 52
280 272 274 265 225 208 218 221 219 205 198 205 212 207 205 208 204 199 197 199 202 208 217 240 254 203 173 176 199 185 159 170 194 196 234 225 268 284 292 289 283 250 226
270 286 273 250 258 220 215 212 216 207 200 192 195 202 202 199 196 196 194 196 206 210 224 241 257 181 171 187 186 158 148 109 129 232 245 240 230 251 274 294 335 351 296
265 259 268 251 253 242 221 217 215 216 202 188 188 196 193 191 195 203 207 211 226 227 216 232 212 166 183 196 182 183 211 219 229 229 222 238 244 264 344 337 323 321 314
276 273 249 256 256 245 228 225 229 221 210 197 198 187 191 191 202 205 209 216 227 244 251 214 184 180 194 196 192 199 221 234 229 229 232 230 120 332 312 305 304 303 291
265 277 251 251 254 256 242 242 229 233 210 195 203 178 192 195 209 198 199 207 220 240 234 193 223 193 195 206 204 209 229 247 270 298 282 244 293 305 298 301 297 301 314
259 270 268 268 283 260 298 241 269 241 235 228 154 165 182 204 235 256 200 208 206 214 212 188 205 247 193 186 173 198 226 269 255 229 221 249 276 286 295 301 299 295 296
262 277 261 246 290 274 287 247 252 329 253 232 206 173 186 201 226 265 217 209 201 202 188 191 203 220 248 203 202 209 221 221 181 172 220 243 262 276 285 287 289 288 289
239 250 254 232 253 262 274 265 276 312 326 14 34 139 133 179 211 239 251 207 173 171 185 200 209 227 237 233 221 212 222 224 234 234 243 257 264 269 270 270 271 274 284
236 238 252 240 236 235 229 236 234 229 226 197 106 99 304 272 282 305 118 139 173 193 210 224 228 227 221 210 214 220 213 222 241 263 276 272 261 264 263 265 274 282 282
Height
801 803 804 806 809 809 811 811 814 816 816 816 817 818 818 817 816 817 818 817 815 814 813 812 812 812 810 808 808 809 811 813 820 829 832 835 836 838 839 839 840 840 841
802 805 805 809 810 811 812 813 817 818 818 819 819 820 820 820 820 821 821 820 819 818 817 817 815 815 813 812 811 811 812 814 818 825 832 835 837 838 839 841 842 842 841
802 804 808 809 811 812 814 814 817 818 819 820 821 822 823 824 823 823 822 821 822 822 820 820 820 819 817 816 816 816 816 818 820 824 830 834 837 839 840 841 842 842 843
800 802 805 808 810 812 815 816 816 817 819 821 823 824 825 826 826 825 825 825 824 823 823 822 822 821 820 820 820 820 821 822 825 828 832 836 838 840 840 842 843 844 844
799 799 801 806 808 811 814 815 817 818 820 821 823 824 825 825 826 826 827 828 827 826 826 826 825 824 823 822 822 824 824 826 830 833 836 838 839 841 841 842 844 844 844
798 798 801 805 807 809 812 814 817 817 820 821 822 824 824 826 827 826 827 828 829 829 829 829 828 827 827 827 827 827 829 829 830 833 835 838 840 840 841 842 843 844 845
796 797 799 802 806 807 809 813 815 816 818 821 822 823 823 825 827 828 828 828 829 830 830 829 831 831 830 830 831 831 832 833 834 834 835 837 838 840 840 841 841 842 842
795 796 797 798 803 804 806 809 813 815 817 819 821 822 823 825 827 828 829 830 830 830 831 831 832 832 832 833 833 833 835 836 837 837 838 839 840 840 840 840 840 840 841
795 797 799 800 801 802 802 805 808 812 815 818 820 820 821 825 826 828 828 830 831 831 832 834 834 834 835 835 836 837 837 838 839 840 840 841 841 840 840 838 840 839 837
796 797 799 801 800 801 796 802 806 809 811 815 818 819 821 823 825 827 828 829 831 831 832 833 835 835 836 836 837 836 838 839 840 840 840 841 841 841 841 840 839 838 838
794 794 795 800 797 801 794 799 804 808 809 813 816 818 820 822 824 826 827 828 830 831 832 833 834 835 836 836 836 837 838 839 840 839 839 839 840 842 841 841 842 841 840
793 794 797 798 800 799 800 801 804 804 808 812 815 818 820 821 822 824 826 827 829 830 831 832 833 836 837 837 835 836 837 838 838 837 837 839 840 841 842 842 842 842 841
793 794 796 797 798 797 798 798 800 803 806 810 813 816 819 821 821 823 825 827 828 829 830 831 833 834 837 838 837 837 837 836 837 836 836 838 840 841 841 841 841 840 840
795 795 795 796 796 795 797 799 800 801 804 806 809 813 814 817 819 821 823 826 827 827 829 831 832 835 836 837 838 838 838 837 836 837 837 838 840 840 840 840 840 839 838
795 794 795 795 795 796 796 797 799 800 802 803 806 810 812 815 816 818 822 823 824 826 829 830 832 834 834 834 835 836 838 838 838 838 838 838 839 839 839 839 839 838 837
797 797 796 795 796 795 796 796 797 798 800 802 806 808 809 812 813 816 819 821 823 824 826 829 830 830 830 831 832 833 836 837 838 838 838 838 838 838 838 838 838 838 837
798 797 796 796 796 796 796 796 797 797 798 801 804 806 808 810 813 815 816 819 821 824 826 826 826 826 826 827 830 831 832 834 837 837 837 837 837 837 837 836 836 835 835
798 797 796 794 793 794 796 795 795 796 797 799 801 803 805 808 810 812 814 816 819 820 823 822 822 820 822 826 829 830 831 833 834 834 835 835 836 837 836 835 834 833 831
794 794 792 791 791 791 792 792 793 794 795 796 799 801 803 805 807 809 810 812 815 817 818 817 816 817 820 824 826 827 829 831 832 832 832 832 832 833 833 832 832 831 829
789 789 788 788 788 788 788 789 789 790 791 794 794 797 799 803 804 805 807 810 810 811 811 810 812 813 818 821 822 825 827 828 828 828 827 828 830 830 830 830 829 829 827
785 785 784 785 784 783 783 783 782 782 784 786 788 789 793 797 800 802 804 806 806 805 805 805 807 810 814 817 820 821 823 823 823 823 824 825 825 827 828 827 827 826 825
781 780 780 781 780 778 777 776 775 775 776 779 780 783 788 793 794 795 798 799 800 800 800 801 805 806 809 811 813 816 817 818 818 820 820 821 822 824 825 824 824 822 821
777 776 775 776 775 774 772 771 771 771 773 775 777 781 785 788 790 791 791 793 795 796 798 799 803 805 806 808 809 812 814 815 815 816 818 819 820 821 821 820 820 820 818
772 772 771 772 772 771 771 769 770 772 772 773 773 775 779 783 787 787 786 787 789 791 794 796 800 803 804 806 807 809 810 811 812 813 815 816 817 817 817 816 816 815 815
763 765 766 768 769 769 770 769 771 772 775 773 778 777 779 783 791 791 787 784 786 789 792 794 797 799 800 801 802 802 805 807 809 811 812 813 813 813 813 813 813 812 811
756 758 761 763 765 766 766 768 769 773 775 780 777 775 778 782 788 789 784 783 784 786 788 790 792 795 797 798 797 799 801 803 805 807 807 808 809 809 809 808 808 807 808